User: anonymous   Login
Location: Brno
(49.2000°N, 16.6330°E)
Time: 08:56:27
(UTC+02:00)
Language:

Courier 1B Rocket - Orbit

View from above orbital plane
View from above orbital plane
View from above satellite
View from above satellite

Ground track
Ground track

The orbit data is extracted from the following two-line orbital elements,

1 00059U 60013B   21204.77956551  .00000084  00000-0 -11326-5 0  9999
2 00059  28.2487 316.6727 0189258  54.6092 307.1977 13.52986438   652
Epoch (UTC): 23 July 2021 18:42:34
Eccentricity: 0.0189258
inclination: 28.2487°
perigee height: 920 km
apogee height: 1202 km
right ascension of ascending node: 316.6727°
argument of perigee: 54.6092°
revolutions per day: 13.52986438
mean anomaly at epoch: 307.1977°
orbit number at epoch: 65

The dashed part of the orbit path shows where the satellite is in the earth's shadow,  

DLR